Dodge City, KS

9:30 AM CDT on June 24, 2017 (GMT -0500)
Dodge City Regional

Weather History for KDDC - February, 2013

Change the Weather History Date:

Wednesday, February 27, 2013

  Actual Average Record
Temperature  
Mean Temperature 28 °F -  
Max Temperature 36 °F 53 °F 83 °F (1904)
Min Temperature 19 °F 27 °F -6 °F (1890)
Degree Days  
Heating Degree Days 38    
Moisture  
Dew Point 21 °F    
Average Humidity 73    
Maximum Humidity 85    
Minimum Humidity 53    
Precipitation  
Precipitation 0.00 in - - ()
Sea Level Pressure  
Sea Level Pressure 30.17 in    
Wind  
Wind Speed 15 mph (NNW)    
Max Wind Speed 30 mph    
Max Gust Speed 36 mph    
Visibility 10 miles    
Events      
Averages and records for this station are not official NWS values.
T = Trace of Precipitation, MM = Missing Value Source: NWS Daily Summary

Daily Weather History Graph

Daily Weather History Graph

Search for Another Location

Airport or City:

Trip Planner

Search our weather history database for the weather conditions in past years. The results will help you decide how hot, cold, wet, or windy it might be!

Date:

Astronomy

Feb. 27, 2013 Rise Set
Actual Time 7:13 AM CST 6:31 PM CST
Civil Twilight 6:47 AM CST 6:58 PM CST
Nautical Twilight 6:17 AM CST 7:28 PM CST
Astronomical Twilight 5:46 AM CST 7:59 PM CST
Moon 8:51 PM CST (2/27) 7:53 AM CST (2/27)
Length of Visible Light 12h 10m
Length of Day
11h 18m
Waning Gibbous, 96% of the Moon is Illuminated
Feb 27
Waning Gibbous
Mar 4
Last Quarter
Mar 11
New
Mar 19
First Quarter
Mar 27
Full

Hourly Weather History & Observations

Time (CST) Temp. Windchill Dew Point Humidity Pressure Visibility Wind Dir Wind Speed Gust Speed Precip Events Conditions
12:52 AM 16.0 °F 6.3 °F 12.0 °F 84% 30.03 in 10.0 mi NW 6.9 mph - N/A   Clear
1:52 AM 16.0 °F 2.3 °F 12.0 °F 84% 30.05 in 10.0 mi NW 12.7 mph - N/A   Clear
2:52 AM 18.0 °F 4.2 °F 12.9 °F 81% 30.04 in 10.0 mi WNW 13.8 mph - N/A   Clear
3:52 AM 18.0 °F 4.8 °F 12.9 °F 81% 30.04 in 10.0 mi WNW 12.7 mph - N/A   Clear
4:52 AM 19.0 °F 5.0 °F 14.0 °F 81% 30.06 in 10.0 mi NW 15.0 mph - N/A   Clear
5:52 AM 19.9 °F 6.2 °F 14.0 °F 78% 30.09 in 10.0 mi NW 15.0 mph - N/A   Clear
6:52 AM 19.9 °F 5.7 °F 15.1 °F 81% 30.12 in 10.0 mi NW 16.1 mph - N/A   Clear
7:52 AM 25.0 °F 11.7 °F 19.9 °F 81% 30.13 in 10.0 mi NNW 17.3 mph - N/A   Clear
8:52 AM 30.0 °F 19.1 °F 24.1 °F 79% 30.16 in 10.0 mi NNW 15.0 mph 24.2 mph N/A   Clear
9:22 AM 32.0 °F 20.1 °F 24.8 °F 75% 30.10 in 10.0 mi NNW 19.6 mph 29.9 mph N/A   Mostly Cloudy
9:52 AM 33.1 °F 21.2 °F 25.0 °F 72% 30.18 in 10.0 mi NNW 20.7 mph 26.5 mph N/A   Overcast
10:52 AM 35.1 °F 21.8 °F 26.1 °F 70% 30.19 in 10.0 mi North 29.9 mph 35.7 mph N/A   Overcast
11:15 AM 35.6 °F 23.4 °F 26.6 °F 70% 30.13 in 10.0 mi North 25.3 mph 33.4 mph N/A   Scattered Clouds
11:52 AM 36.0 °F 26.3 °F 27.0 °F 70% 30.22 in 10.0 mi NNW 16.1 mph 25.3 mph N/A   Scattered Clouds
12:05 PM 35.6 °F 24.8 °F 26.6 °F 70% 30.15 in 10.0 mi NNW 19.6 mph 29.9 mph N/A   Mostly Cloudy
12:13 PM 35.6 °F 25.2 °F 24.8 °F 65% 30.15 in 10.0 mi NNW 18.4 mph 28.8 mph N/A   Scattered Clouds
12:52 PM 35.1 °F 23.8 °F 25.0 °F 67% 30.23 in 10.0 mi NNW 20.7 mph 31.1 mph N/A   Overcast
1:52 PM 35.1 °F 24.8 °F 25.0 °F 67% 30.24 in 10.0 mi NNW 17.3 mph 24.2 mph N/A   Overcast
2:03 PM 35.6 °F 24.8 °F 24.8 °F 65% 30.16 in 10.0 mi NNW 19.6 mph 27.6 mph N/A   Overcast
2:19 PM 35.6 °F 24.8 °F 24.8 °F 65% 30.16 in 10.0 mi NNW 19.6 mph 32.2 mph N/A   Overcast
2:52 PM 35.1 °F 24.5 °F 24.1 °F 64% 30.24 in 10.0 mi NNW 18.4 mph 27.6 mph N/A   Overcast
3:52 PM 34.0 °F 21.8 °F 21.9 °F 61% 30.25 in 10.0 mi NNW 23.0 mph 31.1 mph N/A   Overcast
4:52 PM 34.0 °F 22.7 °F 24.1 °F 67% 30.24 in 10.0 mi North 19.6 mph - N/A   Clear
5:52 PM 33.1 °F 23.4 °F 24.1 °F 70% 30.25 in 10.0 mi NNW 13.8 mph - N/A   Clear
6:52 PM 30.9 °F 21.2 °F 24.1 °F 76% 30.25 in 10.0 mi North 12.7 mph - N/A   Clear
7:52 PM 26.6 °F 19.1 °F 21.2 °F 80% 30.19 in 10.0 mi NNW 6.9 mph - N/A   Clear
8:52 PM 25.0 °F 15.5 °F 21.0 °F 85% 30.27 in 10.0 mi WNW 9.2 mph - N/A   Clear
9:52 PM 25.0 °F 14.8 °F 21.0 °F 85% 30.26 in 10.0 mi WNW 10.4 mph - N/A   Clear
10:52 PM 24.1 °F 13.7 °F 19.9 °F 84% 30.26 in 10.0 mi WNW 10.4 mph - N/A   Clear
11:52 PM 26.1 °F 15.6 °F 19.9 °F 78% 30.25 in 10.0 mi WNW 11.5 mph - N/A   Clear